| time (UTC) | temp F | wind direction | speed MPH | gust MPH | rain 1hr in | rain 24hr in | rain mn in | humidity % | barometer mb |
| 20260904200924 | 90 | 135 | 5.0 | 8.0 | 0.00 | 0.13 | 0.13 | 67 | 1012.4 |
| 20260904200422 | 90 | 228 | 3.0 | 3.0 | 0.00 | 0.13 | 0.13 | 67 | 1012.6 |
| 20260904195918 | 90 | 261 | 3.0 | 3.0 | 0.00 | 0.13 | 0.13 | 67 | 1012.9 |
| 20260904195415 | 90 | 241 | 5.0 | 8.0 | 0.00 | 0.13 | 0.13 | 69 | 1012.8 |
| 20260904194910 | 89 | 200 | 5.0 | 10.0 | 0.00 | 0.13 | 0.13 | 66 | 1012.8 |
| 20260904194410 | 89 | 246 | 4.0 | 6.0 | 0.00 | 0.13 | 0.13 | 68 | 1013.2 |
| 20260904193905 | 89 | 246 | 3.0 | 3.0 | 0.00 | 0.13 | 0.13 | 70 | 1013.2 |
| 20260904193400 | 89 | 244 | 2.0 | 2.0 | 0.00 | 0.13 | 0.13 | 72 | 1013.3 |
| 20260904192855 | 88 | 217 | 3.0 | 3.0 | 0.00 | 0.13 | 0.13 | 71 | 1013.3 |
| 20260904192351 | 87 | 225 | 4.0 | 6.0 | 0.00 | 0.13 | 0.13 | 70 | 1013.3 |
| 20260904191847 | 87 | 65 | 4.0 | 6.0 | 0.00 | 0.13 | 0.13 | 71 | 1013.2 |
| 20260904191344 | 87 | 176 | 4.0 | 6.0 | 0.00 | 0.13 | 0.13 | 72 | 1013.4 |
| 20260904190840 | 86 | 231 | 1.0 | 1.0 | 0.00 | 0.13 | 0.13 | 74 | 1013.8 |
| 20260904190335 | 86 | 124 | 3.0 | 5.0 | 0.00 | 0.13 | 0.13 | 72 | 1013.9 |
| 20260904185832 | 85 | 115 | 2.0 | 5.0 | 0.00 | 0.13 | 0.13 | 72 | 1013.9 |
| 20260904185327 | 85 | 133 | 4.0 | 5.0 | 0.00 | 0.13 | 0.13 | 76 | 1014.0 |
| 20260904184826 | 84 | 193 | 7.0 | 8.0 | 0.00 | 0.13 | 0.13 | 74 | 1013.7 |
| 20260904184321 | 85 | 165 | 4.0 | 5.0 | 0.00 | 0.13 | 0.13 | 75 | 1014.1 |
| 20260904183817 | 84 | 121 | 7.0 | 10.0 | 0.00 | 0.13 | 0.13 | 76 | 1014.4 |
| 20260904183312 | 84 | 231 | 6.0 | 7.0 | 0.00 | 0.13 | 0.13 | 75 | 1014.3 |
| 20260904182807 | 84 | 248 | 4.0 | 6.0 | 0.00 | 0.13 | 0.13 | 76 | 1014.4 |
| 20260904182306 | 83 | 157 | 2.0 | 2.0 | 0.00 | 0.13 | 0.13 | 79 | 1014.5 |
| 20260904181757 | 83 | 214 | 2.0 | 3.0 | 0.00 | 0.13 | 0.13 | 79 | 1014.3 |
| 20260904181251 | 82 | 102 | 2.0 | 3.0 | 0.00 | 0.13 | 0.13 | 82 | 1014.5 |
| 20260904180746 | 81 | 126 | 5.0 | 6.0 | 0.00 | 0.13 | 0.13 | 83 | 1014.5 |
| 20260904180242 | 80 | 118 | 3.0 | 5.0 | 0.00 | 0.13 | 0.13 | 86 | 1014.6 |
| 20260904175741 | 80 | 172 | 1.0 | 2.0 | 0.00 | 0.13 | 0.13 | 87 | 1014.5 |
| 20260904175239 | 79 | 171 | 3.0 | 5.0 | 0.00 | 0.13 | 0.13 | 89 | 1014.5 |
| 20260904174735 | 78 | 176 | 4.0 | 7.0 | 0.00 | 0.13 | 0.13 | 90 | 1014.2 |
| 20260904174231 | 77 | 221 | 3.0 | 5.0 | 0.00 | 0.13 | 0.13 | 94 | 1014.2 |
| 20260904173726 | 76 | 253 | 3.0 | 5.0 | 0.00 | 0.13 | 0.13 | 97 | 1014.4 |
| 20260904173221 | 75 | 116 | 4.0 | 5.0 | 0.00 | 0.13 | 0.13 | 97 | 1014.7 |
| 20260904172717 | 74 | 151 | 6.0 | 8.0 | 0.00 | 0.13 | 0.13 | 98 | 1014.8 |
| 20260904172216 | 74 | 93 | 3.0 | 5.0 | 0.00 | 0.13 | 0.13 | 99 | 1015.1 |
| 20260904171712 | 74 | 150 | 3.0 | 3.0 | 0.05 | 0.13 | 0.13 | 99 | 1015.4 |
| 20260904171207 | 73 | 116 | 2.0 | 3.0 | 0.24 | 0.13 | 0.13 | 99 | 1015.7 |
| 20260904170703 | 73 | 75 | 3.0 | 3.0 | 0.66 | 0.13 | 0.13 | 98 | 1016.0 |
| 20260904170158 | 74 | 167 | 3.0 | 3.0 | 0.54 | 0.10 | 0.10 | 97 | 1016.5 |
| 20260904165657 | 75 | 145 | 4.0 | 5.0 | 0.12 | 0.02 | 0.02 | 96 | 1017.2 |
| 20260904165156 | 75 | 149 | 2.0 | 2.0 | 0.07 | 0.01 | 0.01 | 94 | 1017.2 |
| 20260904164651 | 75 | 58 | 1.0 | 2.0 | 0.00 | 0.00 | 0.00 | 93 | 1017.3 |
| 20260904164146 | 75 | 30 | 1.0 | 2.0 | 0.00 | 0.00 | 0.00 | 92 | 1017.5 |
| 20260904163642 | 75 | 39 | 3.0 | 3.0 | 0.00 | 0.00 | 0.00 | 92 | 1017.2 |
| 20260904163138 | 75 | 126 | 1.0 | 1.0 | 0.00 | 0.00 | 0.00 | 92 | 1017.5 |
| 20260904162637 | 76 | 64 | 5.0 | 6.0 | 0.00 | 0.00 | 0.00 | 92 | 1017.1 |
| 20260904162132 | 75 | 118 | 7.0 | 10.0 | 0.00 | 0.00 | 0.00 | 92 | 1016.8 |
| 20260904161627 | 75 | 150 | 4.0 | 5.0 | 0.00 | 0.00 | 0.00 | 93 | 1016.4 |
| 20260904161122 | 75 | 101 | 3.0 | 3.0 | 0.00 | 0.00 | 0.00 | 94 | 1016.8 |
| 20260904160618 | 75 | 161 | 3.0 | 5.0 | 0.00 | 0.00 | 0.00 | 94 | 1016.9 |
| 20260904160114 | 75 | 103 | 2.0 | 5.0 | 0.00 | 0.00 | 0.00 | 93 | 1016.9 |
| 20260904155614 | 75 | 82 | 3.0 | 5.0 | 0.00 | 0.00 | 0.00 | 93 | 1017.1 |
| 20260904155102 | 75 | 69 | 3.0 | 5.0 | 0.00 | 0.00 | 0.00 | 94 | 1017.1 |
| 20260904154556 | 75 | 89 | 2.0 | 3.0 | 0.00 | 0.00 | 0.00 | 94 | 1017.3 |
| 20260904154050 | 75 | 66 | 3.0 | 7.0 | 0.00 | 0.00 | 0.00 | 93 | 1017.3 |
| 20260904153550 | 76 | 70 | 4.0 | 6.0 | 0.00 | 0.00 | 0.00 | 91 | 1016.9 |
| 20260904153047 | 76 | 75 | 8.0 | 14.0 | 0.00 | 0.00 | 0.00 | 92 | 1017.0 |
| 20260904152542 | 76 | 55 | 9.0 | 11.0 | 0.00 | 0.00 | 0.00 | 92 | 1017.1 |
| 20260904152037 | 75 | 14 | 3.0 | 5.0 | 0.00 | 0.00 | 0.00 | 93 | 1016.9 |
| 20260904151533 | 76 | 64 | 4.0 | 6.0 | 0.00 | 0.00 | 0.00 | 93 | 1017.4 |
| 20260904151026 | 77 | 59 | 3.0 | 5.0 | 0.00 | 0.00 | 0.00 | 92 | 1016.9 |
| 20260904150526 | 77 | 92 | 4.0 | 5.0 | 0.00 | 0.00 | 0.00 | 92 | 1017.0 |
| 20260904150021 | 77 | 56 | 3.0 | 3.0 | 0.00 | 0.00 | 0.00 | 91 | 1016.9 |
| 20260904145515 | 77 | 10 | 5.0 | 8.0 | 0.00 | 0.00 | 0.00 | 90 | 1016.9 |
| 20260904145011 | 78 | 355 | 2.0 | 5.0 | 0.00 | 0.00 | 0.00 | 89 | 1016.5 |
| 20260904144507 | 78 | 112 | 2.0 | 3.0 | 0.00 | 0.00 | 0.00 | 90 | 1015.9 |
| 20260904144003 | 78 | 50 | 3.0 | 5.0 | 0.00 | 0.00 | 0.00 | 89 | 1015.7 |
| 20260904143458 | 77 | 47 | 3.0 | 5.0 | 0.00 | 0.00 | 0.00 | 89 | 1015.7 |
| 20260904142954 | 77 | 61 | 3.0 | 3.0 | 0.00 | 0.00 | 0.00 | 89 | 1015.8 |
| 20260904142451 | 78 | 73 | 2.0 | 2.0 | 0.00 | 0.00 | 0.00 | 90 | 1015.6 |
| 20260904141950 | 78 | 75 | 1.0 | 1.0 | 0.00 | 0.00 | 0.00 | 89 | 1015.4 |
| 20260904141445 | 78 | 104 | 3.0 | 3.0 | 0.00 | 0.00 | 0.00 | 91 | 1015.5 |
| 20260904140942 | 77 | 46 | 4.0 | 7.0 | 0.00 | 0.00 | 0.00 | 92 | 1015.5 |
| 20260904140441 | 77 | 114 | 1.0 | 2.0 | 0.00 | 0.00 | 0.00 | 92 | 1015.4 |
| 20260904135940 | 76 | 100 | 2.0 | 2.0 | 0.00 | 0.00 | 0.00 | 94 | 1015.6 |
| 20260904135440 | 76 | 52 | 1.0 | 1.0 | 0.00 | 0.00 | 0.00 | 95 | 1015.6 |
| 20260904134937 | 75 | 15 | 1.0 | 1.0 | 0.00 | 0.00 | 0.00 | 96 | 1015.6 |
| 20260904134437 | 75 | 72 | 1.0 | 1.0 | 0.00 | 0.00 | 0.00 | 96 | 1015.5 |
| 20260904133931 | 75 | 72 | 5.0 | 6.0 | 0.00 | 0.00 | 0.00 | 95 | 1015.3 |
| 20260904133426 | 76 | 59 | 3.0 | 5.0 | 0.00 | 0.00 | 0.00 | 94 | 1015.4 |
| 20260904132922 | 75 | 103 | 2.0 | 5.0 | 0.00 | 0.00 | 0.00 | 95 | 1015.3 |
| 20260904132417 | 75 | 86 | 3.0 | 5.0 | 0.00 | 0.00 | 0.00 | 95 | 1015.4 |
| 20260904131916 | 75 | 58 | 5.0 | 7.0 | 0.00 | 0.00 | 0.00 | 95 | 1015.4 |
| 20260904131412 | 75 | 61 | 3.0 | 6.0 | 0.00 | 0.00 | 0.00 | 95 | 1015.3 |
| 20260904130907 | 74 | 61 | 3.0 | 3.0 | 0.00 | 0.00 | 0.00 | 96 | 1015.2 |
| 20260904130406 | 74 | 82 | 3.0 | 3.0 | 0.00 | 0.00 | 0.00 | 96 | 1015.3 |
| 20260904125901 | 73 | 71 | 3.0 | 6.0 | 0.00 | 0.00 | 0.00 | 97 | 1015.0 |
| 20260904125358 | 73 | 50 | 2.0 | 3.0 | 0.00 | 0.00 | 0.00 | 96 | 1015.1 |
| 20260904124857 | 73 | 64 | 3.0 | 5.0 | 0.00 | 0.00 | 0.00 | 97 | 1014.7 |
| 20260904124354 | 73 | 57 | 3.0 | 5.0 | 0.00 | 0.00 | 0.00 | 97 | 1014.8 |
| 20260904123848 | 73 | 47 | 3.0 | 3.0 | 0.00 | 0.00 | 0.00 | 97 | 1014.7 |
| 20260904123344 | 73 | 66 | 2.0 | 2.0 | 0.00 | 0.00 | 0.00 | 98 | 1014.5 |
| 20260904122839 | 72 | 81 | 1.0 | 2.0 | 0.00 | 0.00 | 0.00 | 98 | 1014.5 |
| 20260904122338 | 72 | 78 | 2.0 | 5.0 | 0.00 | 0.00 | 0.00 | 98 | 1014.5 |
| 20260904121833 | 72 | 63 | 2.0 | 3.0 | 0.00 | 0.00 | 0.00 | 99 | 1014.4 |
| 20260904121330 | 72 | 92 | 1.0 | 2.0 | 0.00 | 0.00 | 0.00 | 99 | 1014.3 |
| 20260904120826 | 73 | 103 | 0.0 | 0.0 | 0.00 | 0.00 | 0.00 | 99 | 1014.3 |
| 20260904120321 | 73 | 96 | 0.0 | 0.0 | 0.00 | 0.00 | 0.00 | 99 | 1014.0 |
| 20260904115816 | 73 | 101 | 0.0 | 0.0 | 0.00 | 0.00 | 0.00 | 99 | 1014.0 |
| 20260904115312 | 73 | 88 | 0.0 | 0.0 | 0.00 | 0.00 | 0.00 | 99 | 1013.9 |
| 20260904114812 | 73 | 75 | 3.0 | 5.0 | 0.00 | 0.00 | 0.00 | 99 | 1013.9 |
| 20260904114306 | 74 | 43 | 0.0 | 0.0 | 0.00 | 0.00 | 0.00 | 99 | 1013.9 |
| 20260904113801 | 74 | 166 | 0.0 | 0.0 | 0.00 | 0.00 | 0.00 | 99 | 1013.6 |
| 20260904113300 | 74 | 92 | 1.0 | 1.0 | 0.00 | 0.00 | 0.00 | 99 | 1013.7 |
| 20260904112755 | 74 | 27 | 1.0 | 1.0 | 0.00 | 0.00 | 0.00 | 99 | 1013.5 |
| 20260904112251 | 74 | 346 | 0.0 | 0.0 | 0.00 | 0.00 | 0.00 | 99 | 1013.4 |
| 20260904111746 | 74 | 90 | 3.0 | 3.0 | 0.00 | 0.00 | 0.00 | 99 | 1013.3 |
| 20260904111242 | 74 | 232 | 0.0 | 0.0 | 0.00 | 0.00 | 0.00 | 99 | 1013.3 |
| 20260904110737 | 74 | 233 | 0.0 | 0.0 | 0.00 | 0.00 | 0.00 | 99 | 1013.0 |
| 20260904110236 | 74 | 233 | 0.0 | 0.0 | 0.00 | 0.00 | 0.00 | 99 | 1012.8 |
| 20260904105732 | 74 | 233 | 0.0 | 0.0 | 0.00 | 0.00 | 0.00 | 98 | 1012.6 |
| 20260904105226 | 75 | 233 | 0.0 | 0.0 | 0.00 | 0.00 | 0.00 | 98 | 1013.0 |
| 20260904104722 | 75 | 233 | 0.0 | 0.0 | 0.00 | 0.00 | 0.00 | 98 | 1012.9 |
| 20260904104217 | 75 | 233 | 0.0 | 0.0 | 0.00 | 0.00 | 0.00 | 98 | 1012.8 |
| 20260904103715 | 75 | 233 | 0.0 | 0.0 | 0.00 | 0.00 | 0.00 | 97 | 1012.9 |
| 20260904103209 | 75 | 232 | 0.0 | 0.0 | 0.00 | 0.00 | 0.00 | 97 | 1013.0 |
| 20260904102705 | 76 | 232 | 0.0 | 0.0 | 0.00 | 0.00 | 0.00 | 97 | 1012.8 |
| 20260904102200 | 76 | 232 | 0.0 | 0.0 | 0.00 | 0.00 | 0.00 | 97 | 1012.8 |
| 20260904101657 | 76 | 232 | 0.0 | 0.0 | 0.00 | 0.00 | 0.00 | 97 | 1012.4 |
| 20260904101152 | 76 | 232 | 0.0 | 0.0 | 0.00 | 0.00 | 0.00 | 97 | 1012.8 |
| 20260904100648 | 76 | 218 | 0.0 | 0.0 | 0.00 | 0.00 | 0.00 | 97 | 1012.6 |
| 20260904100143 | 76 | 218 | 0.0 | 0.0 | 0.00 | 0.00 | 0.00 | 97 | 1012.6 |
| 20260904095642 | 76 | 223 | 0.0 | 0.0 | 0.00 | 0.00 | 0.00 | 96 | 1012.5 |
| 20260904095137 | 77 | 223 | 0.0 | 0.0 | 0.00 | 0.00 | 0.00 | 96 | 1012.4 |
| 20260904094633 | 77 | 205 | 0.0 | 0.0 | 0.00 | 0.00 | 0.00 | 96 | 1012.5 |
| 20260904094133 | 77 | 225 | 0.0 | 0.0 | 0.00 | 0.00 | 0.00 | 96 | 1012.5 |
| 20260904093630 | 77 | 222 | 0.0 | 0.0 | 0.00 | 0.00 | 0.00 | 96 | 1012.5 |
| 20260904093129 | 77 | 235 | 2.0 | 2.0 | 0.00 | 0.00 | 0.00 | 96 | 1012.2 |
| 20260904092626 | 77 | 208 | 1.0 | 1.0 | 0.00 | 0.00 | 0.00 | 96 | 1012.3 |
| 20260904092122 | 77 | 162 | 1.0 | 1.0 | 0.00 | 0.00 | 0.00 | 96 | 1012.4 |
| 20260904091618 | 77 | 168 | 0.0 | 0.0 | 0.00 | 0.00 | 0.00 | 96 | 1012.5 |
| 20260904091117 | 77 | 180 | 0.0 | 1.0 | 0.00 | 0.00 | 0.00 | 97 | 1012.4 |
| 20260904090612 | 77 | 186 | 2.0 | 2.0 | 0.00 | 0.00 | 0.00 | 97 | 1012.3 |
| 20260904090108 | 76 | 232 | 2.0 | 3.0 | 0.00 | 0.00 | 0.00 | 98 | 1012.3 |
| 20260904085603 | 76 | 207 | 0.0 | 1.0 | 0.00 | 0.00 | 0.00 | 98 | 1012.3 |
| 20260904085102 | 76 | 253 | 1.0 | 2.0 | 0.00 | 0.00 | 0.00 | 98 | 1012.2 |
| 20260904084558 | 75 | 157 | 1.0 | 2.0 | 0.00 | 0.00 | 0.00 | 99 | 1012.2 |
| 20260904084055 | 75 | 179 | 1.0 | 1.0 | 0.00 | 0.00 | 0.00 | 99 | 1012.2 |
| 20260904083550 | 74 | 181 | 1.0 | 2.0 | 0.00 | 0.00 | 0.00 | 99 | 1012.6 |
| 20260904083046 | 73 | 193 | 0.0 | 1.0 | 0.00 | 0.00 | 0.00 | 99 | 1012.6 |
| 20260904082541 | 73 | 191 | 0.0 | 0.0 | 0.00 | 0.00 | 0.00 | 99 | 1013.1 |
| 20260904082036 | 74 | 189 | 0.0 | 0.0 | 0.00 | 0.00 | 0.00 | 99 | 1013.4 |
| 20260904081531 | 74 | 189 | 0.0 | 0.0 | 0.00 | 0.00 | 0.00 | 99 | 1013.5 |
| 20260904081027 | 74 | 189 | 0.0 | 0.0 | 0.00 | 0.00 | 0.00 | 99 | 1013.4 |
| 20260904080522 | 74 | 189 | 0.0 | 0.0 | 0.00 | 0.00 | 0.00 | 99 | 1013.4 |
| 20260904080018 | 74 | 188 | 0.0 | 0.0 | 0.00 | 0.00 | 0.00 | 98 | 1013.2 |
| 20260904075514 | 74 | 98 | 0.0 | 0.0 | 0.00 | 0.00 | 0.00 | 98 | 1013.5 |
| 20260904075009 | 74 | 87 | 0.0 | 0.0 | 0.00 | 0.00 | 0.00 | 98 | 1013.3 |
| 20260904074503 | 75 | 147 | 0.0 | 0.0 | 0.00 | 0.00 | 0.00 | 98 | 1013.1 |
| 20260904073957 | 75 | 165 | 0.0 | 0.0 | 0.00 | 0.00 | 0.00 | 98 | 1013.1 |
| 20260904073453 | 75 | 166 | 0.0 | 0.0 | 0.00 | 0.00 | 0.00 | 98 | 1013.3 |
| 20260904072949 | 75 | 184 | 0.0 | 0.0 | 0.00 | 0.00 | 0.00 | 97 | 1013.0 |
| 20260904072445 | 75 | 185 | 0.0 | 0.0 | 0.00 | 0.00 | 0.00 | 97 | 1012.9 |
| 20260904071945 | 76 | 185 | 0.0 | 0.0 | 0.00 | 0.00 | 0.00 | 97 | 1012.9 |
| 20260904071441 | 76 | 185 | 0.0 | 0.0 | 0.00 | 0.00 | 0.00 | 97 | 1013.0 |
| 20260904070935 | 76 | 186 | 0.0 | 0.0 | 0.00 | 0.00 | 0.00 | 97 | 1012.6 |
| 20260904070433 | 76 | 222 | 2.0 | 2.0 | 0.00 | 0.00 | 0.00 | 98 | 1013.1 |
| 20260904065928 | 76 | 218 | 1.0 | 1.0 | 0.00 | 0.00 | 0.00 | 98 | 1012.6 |
| 20260904065424 | 75 | 202 | 0.0 | 0.0 | 0.00 | 0.00 | 0.00 | 98 | 1012.9 |
| 20260904064924 | 75 | 237 | 0.0 | 1.0 | 0.00 | 0.00 | 0.00 | 99 | 1012.6 |
| 20260904064415 | 75 | 202 | 0.0 | 1.0 | 0.00 | 0.00 | 0.00 | 99 | 1012.6 |
| 20260904063910 | 74 | 195 | 0.0 | 1.0 | 0.00 | 0.00 | 0.00 | 99 | 1012.9 |
| 20260904063407 | 74 | 180 | 0.0 | 1.0 | 0.00 | 0.00 | 0.00 | 99 | 1012.9 |
| 20260904062907 | 73 | 179 | 0.0 | 0.0 | 0.00 | 0.00 | 0.00 | 99 | 1013.1 |
| 20260904062403 | 74 | 190 | 0.0 | 0.0 | 0.00 | 0.00 | 0.00 | 99 | 1013.1 |
| 20260904061859 | 74 | 210 | 0.0 | 1.0 | 0.00 | 0.00 | 0.00 | 99 | 1013.2 |
| 20260904061355 | 73 | 187 | 1.0 | 1.0 | 0.00 | 0.00 | 0.00 | 99 | 1013.3 |
| 20260904060851 | 73 | 211 | 0.0 | 0.0 | 0.00 | 0.00 | 0.00 | 99 | 1013.6 |
| 20260904060347 | 73 | 212 | 0.0 | 0.0 | 0.00 | 0.00 | 0.00 | 99 | 1013.4 |
| 20260904055841 | 73 | 217 | 0.0 | 0.0 | 0.00 | 0.00 | 0.00 | 99 | 1013.5 |
| 20260904055337 | 73 | 218 | 0.0 | 0.0 | 0.00 | 0.00 | 0.00 | 99 | 1013.7 |
| 20260904054832 | 73 | 218 | 0.0 | 0.0 | 0.00 | 0.00 | 0.00 | 99 | 1014.0 |
| 20260904054328 | 73 | 200 | 0.0 | 1.0 | 0.00 | 0.00 | 0.00 | 99 | 1014.0 |
| 20260904053824 | 73 | 177 | 0.0 | 1.0 | 0.00 | 0.00 | 0.00 | 99 | 1014.1 |
| 20260904053323 | 73 | 174 | 0.0 | 1.0 | 0.00 | 0.00 | 0.00 | 99 | 1014.2 |
| 20260904052819 | 73 | 173 | 0.0 | 0.0 | 0.00 | 0.00 | 0.00 | 99 | 1014.3 |
| 20260904052315 | 73 | 173 | 0.0 | 0.0 | 0.00 | 0.00 | 0.00 | 99 | 1014.2 |
| 20260904051812 | 73 | 173 | 0.0 | 0.0 | 0.00 | 0.00 | 0.00 | 99 | 1014.2 |
| 20260904051307 | 73 | 173 | 0.0 | 0.0 | 0.00 | 0.00 | 0.00 | 99 | 1014.3 |
| 20260904050802 | 73 | 173 | 0.0 | 0.0 | 0.00 | 0.00 | 0.00 | 99 | 1014.4 |
| 20260904050259 | 73 | 173 | 0.0 | 0.0 | 0.00 | 0.00 | 0.00 | 99 | 1014.2 |
| 20260904045758 | 73 | 173 | 0.0 | 0.0 | 0.00 | 0.09 | 0.09 | 99 | 1014.0 |
| 20260904045253 | 73 | 174 | 0.0 | 0.0 | 0.00 | 0.09 | 0.09 | 99 | 1014.2 |
| 20260904044748 | 73 | 173 | 0.0 | 0.0 | 0.00 | 0.09 | 0.09 | 99 | 1014.2 |
| 20260904044245 | 73 | 173 | 0.0 | 0.0 | 0.00 | 0.09 | 0.09 | 99 | 1014.0 |
| 20260904043740 | 73 | 173 | 0.0 | 0.0 | 0.00 | 0.09 | 0.09 | 99 | 1014.0 |
| 20260904043237 | 73 | 173 | 0.0 | 0.0 | 0.00 | 0.09 | 0.09 | 99 | 1014.1 |
| 20260904042732 | 73 | 171 | 0.0 | 0.0 | 0.00 | 0.09 | 0.09 | 99 | 1013.9 |
| 20260904042228 | 73 | 165 | 0.0 | 0.0 | 0.00 | 0.09 | 0.09 | 99 | 1014.1 |
| 20260904041727 | 73 | 165 | 0.0 | 0.0 | 0.00 | 0.09 | 0.09 | 98 | 1014.0 |
| 20260904041224 | 73 | 165 | 0.0 | 0.0 | 0.00 | 0.09 | 0.09 | 98 | 1014.3 |
| 20260904040720 | 73 | 137 | 0.0 | 0.0 | 0.00 | 0.09 | 0.09 | 98 | 1014.1 |
| 20260904040215 | 73 | 129 | 2.0 | 2.0 | 0.00 | 0.09 | 0.09 | 98 | 1014.2 |
| 20260904035711 | 73 | 171 | 0.0 | 0.0 | 0.00 | 0.09 | 0.09 | 98 | 1014.3 |
| 20260904035206 | 73 | 122 | 0.0 | 1.0 | 0.00 | 0.09 | 0.09 | 98 | 1014.2 |
| 20260904034705 | 73 | 73 | 0.0 | 1.0 | 0.00 | 0.09 | 0.09 | 98 | 1014.5 |
| 20260904034201 | 73 | 159 | 0.0 | 0.0 | 0.00 | 0.09 | 0.09 | 98 | 1014.5 |
| 20260904033656 | 73 | 173 | 0.0 | 0.0 | 0.00 | 0.09 | 0.09 | 98 | 1014.6 |
| 20260904033153 | 73 | 81 | 0.0 | 0.0 | 0.00 | 0.09 | 0.09 | 98 | 1014.6 |
| 20260904032649 | 73 | 70 | 1.0 | 1.0 | 0.00 | 0.09 | 0.09 | 98 | 1014.4 |
| 20260904032148 | 74 | 184 | 0.0 | 1.0 | 0.00 | 0.09 | 0.09 | 98 | 1014.3 |
| 20260904031648 | 74 | 185 | 0.0 | 0.0 | 0.00 | 0.09 | 0.09 | 98 | 1014.3 |
| 20260904031143 | 74 | 185 | 0.0 | 0.0 | 0.00 | 0.09 | 0.09 | 98 | 1014.5 |
| 20260904030639 | 74 | 185 | 1.0 | 1.0 | 0.00 | 0.09 | 0.09 | 97 | 1014.3 |
| 20260904030134 | 74 | 189 | 0.0 | 0.0 | 0.00 | 0.09 | 0.09 | 97 | 1014.6 |
| 20260904025630 | 74 | 152 | 0.0 | 0.0 | 0.00 | 0.09 | 0.09 | 97 | 1014.6 |
| 20260904025125 | 74 | 151 | 1.0 | 1.0 | 0.00 | 0.09 | 0.09 | 97 | 1014.5 |
| 20260904024620 | 74 | 157 | 0.0 | 0.0 | 0.00 | 0.09 | 0.09 | 97 | 1014.8 |
| 20260904024116 | 74 | 106 | 1.0 | 1.0 | 0.00 | 0.09 | 0.09 | 97 | 1014.5 |
| 20260904023611 | 74 | 130 | 0.0 | 0.0 | 0.00 | 0.09 | 0.09 | 96 | 1014.6 |
| 20260904023102 | 74 | 112 | 0.0 | 0.0 | 0.00 | 0.09 | 0.09 | 96 | 1014.4 |
| 20260904022601 | 74 | 112 | 0.0 | 0.0 | 0.00 | 0.09 | 0.09 | 96 | 1014.5 |
| 20260904022059 | 75 | 118 | 0.0 | 0.0 | 0.00 | 0.09 | 0.09 | 96 | 1014.4 |
| 20260904021554 | 75 | 125 | 0.0 | 1.0 | 0.00 | 0.09 | 0.09 | 96 | 1014.2 |
| 20260904021049 | 75 | 64 | 1.0 | 2.0 | 0.00 | 0.09 | 0.09 | 96 | 1014.2 |
| 20260904020544 | 75 | 112 | 0.0 | 0.0 | 0.00 | 0.09 | 0.09 | 95 | 1014.2 |
| 20260904020039 | 75 | 126 | 0.0 | 0.0 | 0.00 | 0.09 | 0.09 | 95 | 1014.0 |
| 20260904015533 | 75 | 93 | 0.0 | 0.0 | 0.00 | 0.09 | 0.09 | 95 | 1014.0 |
| 20260904015032 | 75 | 94 | 0.0 | 0.0 | 0.00 | 0.09 | 0.09 | 95 | 1013.9 |
| 20260904014526 | 75 | 53 | 0.0 | 0.0 | 0.00 | 0.09 | 0.09 | 95 | 1014.1 |
| 20260904014022 | 75 | 52 | 0.0 | 0.0 | 0.00 | 0.09 | 0.09 | 94 | 1013.8 |
| 20260904013518 | 75 | 16 | 2.0 | 2.0 | 0.00 | 0.09 | 0.09 | 94 | 1013.7 |
| 20260904013015 | 75 | 147 | 0.0 | 1.0 | 0.00 | 0.09 | 0.09 | 94 | 1013.6 |
| 20260904012514 | 76 | 149 | 1.0 | 1.0 | 0.00 | 0.09 | 0.09 | 93 | 1013.5 |
| 20260904012009 | 76 | 75 | 0.0 | 1.0 | 0.00 | 0.09 | 0.09 | 92 | 1013.7 |
| 20260904011503 | 76 | 59 | 0.0 | 1.0 | 0.00 | 0.09 | 0.09 | 92 | 1013.5 |
| 20260904010958 | 76 | 83 | 0.0 | 0.0 | 0.00 | 0.09 | 0.09 | 91 | 1013.5 |
| 20260904010455 | 77 | 191 | 0.0 | 0.0 | 0.00 | 0.09 | 0.09 | 90 | 1013.3 |
| 20260904005955 | 77 | 309 | 0.0 | 0.0 | 0.00 | 0.09 | 0.09 | 89 | 1013.4 |
| 20260904005450 | 78 | 13 | 0.0 | 0.0 | 0.00 | 0.09 | 0.09 | 88 | 1013.5 |
| 20260904004945 | 78 | 26 | 0.0 | 0.0 | 0.00 | 0.09 | 0.09 | 87 | 1013.4 |
| 20260904004442 | 78 | 112 | 0.0 | 1.0 | 0.00 | 0.09 | 0.09 | 87 | 1013.4 |
| 20260904003941 | 78 | 151 | 0.0 | 0.0 | 0.00 | 0.09 | 0.09 | 87 | 1013.1 |
| 20260904003437 | 78 | 151 | 0.0 | 0.0 | 0.00 | 0.09 | 0.09 | 86 | 1012.8 |
| 20260904002932 | 79 | 150 | 0.0 | 0.0 | 0.00 | 0.09 | 0.09 | 85 | 1012.9 |
| 20260904002429 | 79 | 151 | 0.0 | 0.0 | 0.00 | 0.09 | 0.09 | 84 | 1012.6 |
| 20260904001927 | 79 | 151 | 0.0 | 0.0 | 0.00 | 0.09 | 0.09 | 83 | 1012.6 |
| 20260904001423 | 79 | 151 | 1.0 | 2.0 | 0.00 | 0.09 | 0.09 | 83 | 1012.6 |
| 20260904000918 | 80 | 144 | 1.0 | 2.0 | 0.00 | 0.09 | 0.09 | 82 | 1012.8 |
| 20260904000418 | 80 | 157 | 1.0 | 1.0 | 0.00 | 0.09 | 0.09 | 81 | 1012.4 |
| 20260903235913 | 80 | 138 | 1.0 | 2.0 | 0.00 | 0.09 | 0.09 | 81 | 1012.5 |
| 20260903235409 | 80 | 146 | 1.0 | 1.0 | 0.00 | 0.09 | 0.09 | 80 | 1012.6 |
| 20260903234908 | 81 | 158 | 1.0 | 1.0 | 0.00 | 0.09 | 0.09 | 80 | 1013.0 |
| 20260903234404 | 81 | 138 | 0.0 | 1.0 | 0.00 | 0.09 | 0.09 | 80 | 1012.5 |
| 20260903233900 | 81 | 116 | 0.0 | 0.0 | 0.00 | 0.09 | 0.09 | 80 | 1012.8 |
| 20260903233356 | 81 | 187 | 1.0 | 1.0 | 0.00 | 0.09 | 0.09 | 78 | 1012.9 |
| 20260903232855 | 82 | 128 | 1.0 | 1.0 | 0.00 | 0.09 | 0.09 | 79 | 1012.9 |
| 20260903232351 | 82 | 125 | 1.0 | 1.0 | 0.00 | 0.09 | 0.09 | 79 | 1012.9 |
| 20260903231850 | 82 | 130 | 1.0 | 1.0 | 0.00 | 0.09 | 0.09 | 79 | 1012.9 |
| 20260903231345 | 83 | 107 | 0.0 | 1.0 | 0.00 | 0.09 | 0.09 | 78 | 1012.8 |
| 20260903230841 | 83 | 130 | 1.0 | 1.0 | 0.00 | 0.09 | 0.09 | 77 | 1012.8 |
| 20260903230336 | 83 | 117 | 2.0 | 2.0 | 0.00 | 0.09 | 0.09 | 76 | 1012.8 |
| 20260903225832 | 84 | 145 | 2.0 | 2.0 | 0.00 | 0.09 | 0.09 | 78 | 1012.6 |
| 20260903225328 | 84 | 124 | 1.0 | 1.0 | 0.00 | 0.09 | 0.09 | 78 | 1012.8 |
| 20260903224824 | 84 | 124 | 4.0 | 5.0 | 0.00 | 0.09 | 0.09 | 79 | 1013.0 |
| 20260903224320 | 85 | 125 | 1.0 | 1.0 | 0.00 | 0.09 | 0.09 | 80 | 1013.0 |
| 20260903223816 | 85 | 211 | 1.0 | 1.0 | 0.00 | 0.09 | 0.09 | 79 | 1012.9 |
| 20260903223314 | 85 | 206 | 0.0 | 0.0 | 0.00 | 0.09 | 0.09 | 80 | 1013.1 |
| 20260903222809 | 86 | 198 | 1.0 | 1.0 | 0.00 | 0.09 | 0.09 | 80 | 1012.9 |
| 20260903222308 | 86 | 254 | 2.0 | 2.0 | 0.00 | 0.09 | 0.09 | 77 | 1013.0 |
| 20260903221803 | 86 | 162 | 3.0 | 5.0 | 0.00 | 0.09 | 0.09 | 76 | 1012.9 |
| 20260903221302 | 86 | 181 | 2.0 | 3.0 | 0.00 | 0.09 | 0.09 | 77 | 1013.2 |
| 20260903220801 | 86 | 175 | 3.0 | 3.0 | 0.00 | 0.09 | 0.09 | 76 | 1013.2 |
| 20260903220255 | 86 | 103 | 1.0 | 2.0 | 0.00 | 0.09 | 0.09 | 78 | 1013.2 |
| 20260903215753 | 86 | 198 | 2.0 | 2.0 | 0.00 | 0.09 | 0.09 | 76 | 1013.3 |
| 20260903215250 | 86 | 182 | 3.0 | 3.0 | 0.00 | 0.09 | 0.09 | 76 | 1013.3 |
| 20260903214748 | 86 | 111 | 2.0 | 2.0 | 0.00 | 0.09 | 0.09 | 76 | 1013.1 |
| 20260903214244 | 87 | 127 | 3.0 | 3.0 | 0.00 | 0.09 | 0.09 | 76 | 1013.4 |
| 20260903213738 | 87 | 212 | 1.0 | 2.0 | 0.00 | 0.09 | 0.09 | 75 | 1013.4 |
| 20260903213234 | 86 | 130 | 1.0 | 2.0 | 0.00 | 0.09 | 0.09 | 76 | 1013.1 |
| 20260903212730 | 86 | 187 | 0.0 | 0.0 | 0.00 | 0.09 | 0.09 | 76 | 1013.4 |
| 20260903212226 | 86 | 235 | 1.0 | 1.0 | 0.00 | 0.09 | 0.09 | 76 | 1013.4 |
| 20260903211719 | 84 | 194 | 1.0 | 1.0 | 0.00 | 0.09 | 0.09 | 79 | 1013.3 |
| 20260903211216 | 85 | 181 | 1.0 | 2.0 | 0.00 | 0.09 | 0.09 | 79 | 1013.5 |
| 20260903210712 | 85 | 151 | 2.0 | 2.0 | 0.00 | 0.09 | 0.09 | 79 | 1013.3 |
| 20260903210207 | 86 | 145 | 2.0 | 3.0 | 0.00 | 0.09 | 0.09 | 76 | 1013.6 |
| 20260903205706 | 86 | 151 | 2.0 | 2.0 | 0.00 | 0.09 | 0.09 | 75 | 1013.6 |
| 20260903205206 | 86 | 67 | 2.0 | 2.0 | 0.00 | 0.09 | 0.09 | 76 | 1013.4 |
| 20260903204701 | 85 | 123 | 3.0 | 3.0 | 0.00 | 0.09 | 0.09 | 79 | 1013.6 |
| 20260903204157 | 86 | 125 | 1.0 | 2.0 | 0.00 | 0.09 | 0.09 | 76 | 1013.7 |
| 20260903203653 | 86 | 101 | 1.0 | 2.0 | 0.00 | 0.09 | 0.09 | 76 | 1013.7 |
| 20260903203148 | 85 | 143 | 3.0 | 3.0 | 0.00 | 0.09 | 0.09 | 77 | 1013.7 |
| 20260903202642 | 85 | 194 | 0.0 | 1.0 | 0.00 | 0.09 | 0.09 | 77 | 1013.8 |
| 20260903202138 | 85 | 183 | 0.0 | 0.0 | 0.00 | 0.09 | 0.09 | 76 | 1013.8 |
| 20260903201632 | 84 | 55 | 0.0 | 0.0 | 0.00 | 0.09 | 0.09 | 80 | 1014.0 |
| 20260903201131 | 84 | 96 | 2.0 | 2.0 | 0.00 | 0.09 | 0.09 | 80 | 1013.9 |